Dewpoint
51 51 51 52 52 52 52 52 53 53 53 54 54 54 54 54 54 41 38 39 42 58 54 28 23 25 25 36 35 38 35 32 28 25 23 21 20 19 19 17 16 28 34 41 44
51 51 51 52 52 52 52 52 53 53 54 54 54 55 54 55 47 40 47 47 54 57 33 24 20 19 21 28 32 32 34 33 31 29 27 22 21 21 19 18 18 22 35 39 43
51 51 51 51 51 52 52 52 53 53 54 54 54 54 55 53 43 35 52 45 55 51 30 23 24 21 18 19 27 33 34 34 32 31 30 28 26 22 21 18 17 26 33 38 40
51 51 51 51 51 51 52 52 53 53 54 54 54 55 55 49 23 43 53 50 56 44 31 17 18 21 19 17 17 24 30 33 33 32 31 31 31 28 25 23 21 22 33 40 42
51 51 51 50 51 51 51 52 53 53 53 54 55 55 50 40 22 33 54 49 39 31 23 19 14 14 19 17 16 14 17 24 29 32 33 33 32 32 30 30 26 24 26 39 42
51 51 50 50 50 51 52 52 53 53 53 54 55 55 47 32 22 25 26 26 25 24 23 22 19 17 13 11 17 17 15 17 18 22 27 30 32 33 34 33 33 31 29 28 39
52 51 51 51 50 51 51 52 53 53 53 54 55 48 42 29 22 21 25 22 23 23 25 24 22 22 20 17 14 15 18 19 17 17 19 24 28 29 34 35 35 35 33 32 31
51 51 49 50 50 51 51 52 52 53 54 55 55 46 39 21 21 22 19 19 20 22 23 25 25 24 22 20 17 13 13 14 17 17 17 20 21 27 31 34 35 35 36 35 34
51 51 51 50 50 51 51 52 52 53 54 53 49 46 28 33 23 18 17 18 21 21 21 20 22 22 20 15 13 12 6 5 6 12 15 16 19 24 27 31 35 37 38 36 37
50 50 51 50 50 51 51 52 51 52 51 46 41 33 31 16 18 16 19 22 22 24 25 23 20 20 18 14 8 6 5 2 1 3 5 11 15 19 26 28 33 35 36 38 38
51 50 51 51 51 51 49 44 41 44 44 33 26 26 20 17 19 17 19 21 23 24 22 20 17 16 18 18 15 12 11 9 10 7 6 8 12 17 21 25 26 35 36 37 40
51 51 51 51 51 51 47 37 32 33 30 28 25 23 18 19 18 20 18 20 21 17 18 17 15 15 15 16 16 15 13 14 15 13 12 14 11 14 19 23 25 31 36 38 39
51 51 52 51 51 47 40 35 34 34 30 25 18 17 17 18 18 19 19 19 16 15 16 15 15 16 17 17 16 15 14 14 13 14 13 13 13 15 16 22 22 28 34 37 39
51 51 51 51 47 36 37 37 35 36 28 22 16 17 16 17 17 19 19 18 19 17 14 14 15 16 18 17 13 14 14 12 12 12 9 12 9 18 17 22 25 25 31 35 36
51 51 51 50 44 34 35 37 36 37 27 18 15 20 16 16 16 15 20 20 16 14 12 11 16 15 22 20 20 17 13 12 11 12 12 10 10 13 20 20 25 26 29 34 35
51 51 51 46 46 37 34 38 39 33 24 14 15 15 14 15 16 15 15 16 15 12 12 18 21 23 22 24 25 15 13 12 12 10 8 10 10 10 14 22 24 27 27 30 34
51 51 48 44 36 34 37 37 31 27 16 15 15 13 14 17 15 15 15 15 13 17 16 21 15 24 27 24 25 16 15 11 8 8 12 12 7 12 17 20 25 26 28 30 31
49 49 48 40 38 38 38 35 29 21 18 19 18 17 17 14 13 14 15 12 17 20 21 18 17 21 20 19 20 21 18 19 16 16 22 24 21 11 19 19 24 28 28 33 31
48 45 45 44 41 39 34 36 26 21 21 21 21 17 15 14 14 15 15 12 17 16 19 22 16 18 17 18 24 21 17 20 18 21 21 24 27 25 25 25 24 26 26 30 33
43 43 40 42 41 38 34 31 25 21 22 23 22 20 19 18 18 17 16 17 16 20 22 20 18 14 14 17 21 21 22 22 26 21 18 18 20 21 26 26 25 28 31 34 37
44 37 41 39 37 37 36 28 23 20 21 25 25 24 22 20 20 19 19 19 25 26 29 22 24 24 21 18 18 20 17 18 19 20 15 16 16 29 29 31 31 26 30 35 34
42 31 39 35 33 37 30 24 29 20 25 25 27 26 24 23 22 22 22 24 26 27 24 26 29 23 20 19 31 31 25 30 28 20 24 26 25 30 37 37 36 27 30 32 32
38 32 40 38 37 31 29 27 26 22 25 25 26 27 26 25 25 28 27 26 30 30 31 36 25 23 18 18 33 31 27 27 32 31 22 19 21 34 39 38 38 35 31 31 32
40 35 31 29 33 33 31 29 26 23 23 26 28 29 28 27 26 25 24 27 32 32 38 35 30 26 24 23 30 30 27 25 30 28 20 16 20 34 37 38 41 39 32 31 31
36 33 35 29 29 31 32 31 27 24 24 25 27 27 27 27 27 26 26 26 28 36 32 34 32 29 24 24 24 21 24 24 20 14 12 13 15 26 37 39 41 42 35 26 26
36 33 30 31 33 31 32 30 29 29 30 27 25 27 29 29 29 27 27 29 32 33 33 36 31 30 26 23 20 23 24 15 12 13 10 11 13 20 40 40 38 33 23 23 24
37 37 36 33 31 30 29 28 28 29 30 29 29 29 29 30 32 31 31 33 33 34 36 36 32 30 24 22 21 20 25 27 30 29 23 24 30 31 27 27 31 31 29 28 28
Lifted_Index
11 11 11 11 10 10 10 10 9 9 9 9 9 9 9 9 10 9 9 10 10 9 9 10 10 8 7 5 3 3 2 3 3 3 4 4 4 3 3 2 1 0 -1 -1 -1
11 11 11 11 11 10 10 10 9 9 9 9 9 9 9 9 9 8 9 10 10 10 10 10 9 8 7 5 4 3 2 3 3 3 3 3 3 4 3 2 2 1 -0 -1 -1
12 11 11 11 11 10 10 10 10 9 9 9 9 9 9 8 8 7 8 10 10 10 10 10 9 8 7 6 5 4 3 3 2 2 2 3 3 4 4 3 2 1 0 -0 -0
12 11 11 11 11 11 10 10 10 9 9 9 9 8 8 8 7 7 8 10 9 9 9 10 9 8 7 7 6 5 4 3 2 2 2 2 2 3 4 3 3 2 0 -0 -0
12 12 12 11 11 11 11 10 10 10 9 9 8 8 7 7 8 9 9 9 9 9 9 9 9 9 8 7 7 7 6 5 3 2 2 2 2 2 3 3 3 2 1 0 -0
12 12 12 12 11 11 11 10 10 10 10 9 8 8 7 7 8 9 9 9 9 9 9 9 9 9 9 8 8 7 7 6 5 4 3 2 2 2 2 2 2 2 2 1 0
12 12 12 12 11 11 10 10 10 10 9 8 8 7 7 8 9 9 9 9 9 9 9 9 9 9 9 9 8 7 7 6 6 6 5 4 3 3 2 2 2 1 2 1 1
12 12 12 12 12 11 11 10 10 9 8 7 7 6 7 8 9 10 10 10 10 10 9 9 9 9 9 9 8 7 6 5 6 6 5 4 4 4 3 2 1 1 1 1 1
12 12 12 12 12 11 11 10 9 8 7 6 6 6 7 8 9 10 10 10 10 9 9 9 9 9 9 8 7 6 5 5 5 5 5 4 4 4 4 3 2 1 1 0 0
11 12 12 12 12 11 10 9 8 7 6 6 6 6 7 8 9 10 10 9 9 9 8 8 8 8 8 7 6 5 5 5 5 5 4 3 4 5 4 3 2 1 1 0 -0
11 11 12 12 12 11 9 8 7 6 6 6 6 7 8 8 9 9 9 9 9 8 8 8 7 7 7 6 6 6 6 6 7 6 5 3 4 5 5 4 3 2 1 1 -0
11 11 11 11 11 10 8 7 7 7 6 6 7 7 8 8 8 8 8 8 8 8 8 7 7 7 6 6 7 7 7 7 7 6 5 5 5 5 5 4 3 2 2 1 0
10 10 11 10 9 8 7 7 7 7 7 7 7 7 8 8 8 7 8 8 8 8 8 7 7 6 6 6 6 6 6 6 6 6 6 6 5 5 5 5 4 2 2 2 1
10 10 10 9 8 7 7 7 7 7 6 6 7 7 7 7 7 7 7 7 7 7 7 7 6 5 5 4 4 4 4 4 4 4 4 5 5 5 6 5 4 3 2 2 2
10 10 10 8 7 6 7 7 7 6 5 5 6 6 6 6 6 6 6 7 7 6 5 4 3 3 2 2 1 1 1 1 1 1 3 4 4 5 6 5 4 3 2 2 2
10 10 9 7 6 6 6 6 5 4 4 5 5 6 6 5 5 5 5 5 4 3 2 2 1 0 0 -0 -0 -0 -0 -0 -0 -0 1 3 4 5 6 5 3 2 1 1 1
10 9 8 7 6 6 6 5 4 3 3 4 5 5 4 4 3 3 3 2 1 1 1 1 0 0 -0 -0 -1 -0 -0 -0 -0 -0 0 1 2 3 5 4 2 1 0 -0 -0
10 9 7 6 6 6 6 4 3 3 4 4 4 4 3 2 2 2 1 0 0 1 1 1 0 0 0 -0 -1 -1 -1 -1 -0 -0 -0 -0 0 2 3 3 2 1 -0 -0 -0
9 7 6 5 6 6 5 4 3 4 4 4 4 3 2 1 1 1 0 -0 0 0 0 0 0 0 -0 -0 -1 -1 -0 -0 -0 -0 -0 -0 0 0 1 1 2 1 0 0 1
8 6 5 5 6 6 5 4 4 5 5 4 3 3 2 2 2 1 1 0 0 0 -0 -0 -0 -0 -0 -1 -1 -1 -1 -0 -0 -0 -0 -0 0 0 0 1 1 1 0 0 1
7 6 5 6 6 5 4 4 5 5 5 4 3 3 2 2 2 2 1 1 0 0 -0 -1 -1 -1 -1 -1 -1 -1 -1 -1 -0 -0 -0 0 1 0 0 0 0 0 -0 0 1
7 6 6 6 6 5 4 5 5 5 5 4 3 3 2 2 2 2 1 1 1 0 -0 -1 -1 -0 -0 -0 -0 -0 -1 -1 -0 -0 0 1 1 1 1 1 0 0 -0 0 1
7 6 6 6 5 5 5 4 5 5 4 4 3 2 2 2 2 2 2 1 1 1 0 -0 -0 0 0 -0 -0 -0 -0 -0 -0 -0 0 1 1 2 2 1 1 0 0 1 2
7 7 7 7 6 5 5 4 4 4 4 4 3 3 2 2 2 2 2 2 2 1 1 0 0 0 0 -0 -0 -0 -0 -0 -0 -0 0 0 1 2 2 2 2 1 1 2 3
7 8 8 8 7 6 6 5 4 4 4 4 3 3 2 2 3 3 3 2 2 1 1 0 0 0 0 -0 -1 -1 -1 -1 -0 0 0 0 1 1 2 3 3 2 2 3 4
9 9 9 9 7 6 6 5 4 4 4 4 4 3 3 3 3 3 3 2 2 1 1 0 0 0 0 0 -0 -1 -1 -0 0 1 0 0 -0 0 1 2 2 1 1 2 3
10 10 10 9 7 6 6 5 5 5 4 4 4 4 3 3 3 3 3 2 1 1 1 0 1 1 1 0 -0 -1 -1 0 1 1 0 -0 -1 -0 0 1 1 0 1 2 3